Temp
3 3 3 3 3 3 3 3 3 3 3 4 4 4 5 5 5 6 6 6 6 6 6 6 6 6 6 6 6 7 6 8 9 9 9 11 11 11 11 12 12 12 12 14 13
3 3 3 3 3 2 3 3 3 3 3 4 4 4 5 5 5 5 5 6 6 6 6 6 6 6 6 6 6 6 7 8 8 8 8 9 9 10 11 11 12 11 12 14 13
3 2 2 2 2 3 3 3 3 3 3 3 3 4 4 5 5 5 5 5 5 5 5 6 6 6 5 5 5 5 8 7 5 6 7 9 9 10 11 12 12 11 11 13 13
3 3 2 2 3 3 3 3 3 3 3 3 3 4 4 4 4 4 4 4 5 5 5 5 5 5 5 5 5 5 7 6 5 5 6 7 8 10 11 12 12 11 11 11 13
2 2 2 2 2 2 2 2 2 2 2 3 3 3 3 3 4 3 4 4 4 4 5 5 5 4 4 4 4 5 6 5 4 3 5 6 7 8 11 12 12 11 11 11 12
2 2 2 2 2 2 2 2 2 2 2 3 3 3 3 2 2 2 2 2 3 3 3 3 3 3 2 2 2 4 4 4 5 3 4 5 6 6 13 11 11 11 10 11 11
2 2 2 2 2 1 2 2 2 2 2 2 2 2 2 2 2 2 2 2 2 2 2 1 0 -0 -1 -1 -1 1 2 3 3 3 3 3 4 7 13 10 11 10 10 11 11
1 1 1 1 1 1 1 1 2 2 2 2 2 2 2 1 1 1 1 -0 -0 -1 -2 -3 -2 -2 -2 -3 -2 -2 -2 -1 0 1 1 2 6 9 10 7 9 9 9 9 10
1 1 1 1 1 1 1 1 1 1 1 1 1 1 0 -1 -1 -2 -1 -2 -2 -2 -3 -3 -3 -3 -3 -3 -4 -4 -4 -4 -3 -2 -0 -0 5 6 5 6 7 8 9 9 9
1 1 1 1 1 1 1 1 1 1 1 0 1 -0 -1 -1 -2 -3 -3 -3 -2 -3 -3 -3 -4 -5 -4 -5 -6 -5 -6 -5 -5 -4 -1 -1 -0 1 2 4 6 6 6 8 9
1 1 1 1 1 1 1 0 0 -0 -0 0 -1 -2 -3 -4 -3 -4 -3 -3 -3 -3 -4 -4 -4 -5 -5 -5 -5 -6 -6 -7 -6 -5 -4 -1 -1 -0 1 2 4 5 6 6 9
1 1 1 0 1 0 0 0 -0 -1 -1 -1 -2 -3 -4 -5 -4 -3 -3 -3 -3 -3 -4 -4 -5 -6 -5 -5 -6 -6 -6 -7 -6 -5 -4 -3 -1 0 1 1 3 5 5 7 7
0 0 0 0 0 0 -0 -0 -1 -1 -2 -3 -3 -3 -3 -4 -5 -4 -3 -3 -4 -4 -4 -5 -5 -5 -6 -6 -7 -6 -6 -6 -6 -5 -3 -4 -2 -0 1 2 2 3 5 6 6
-0 0 0 -0 -1 -1 -1 -1 -1 -2 -2 -3 -3 -4 -4 -4 -5 -5 -4 -4 -4 -5 -5 -5 -5 -6 -6 -6 -6 -6 -5 -6 -6 -5 -4 -3 -3 0 2 2 2 3 4 4 5
-0 -0 -0 -0 -1 -1 -1 -1 -1 -2 -8 -3 -3 -4 -4 -4 -4 -5 -5 -4 -4 -5 -5 -6 -5 -6 -7 -7 -7 -6 -5 -5 -5 -4 -5 -3 -3 -2 0 2 2 3 4 5 5
-1 -1 -1 -1 -1 -1 -1 -2 -2 -2 -6 -3 -4 -5 -4 -4 -5 -5 -5 -5 -4 -4 -6 -6 -6 -6 -7 -6 -6 -5 -6 -5 -5 -4 -5 -3 -2 -2 -2 -3 0 1 3 5 5
-1 -1 -1 -1 -1 -2 -2 -2 -2 -3 -2 -3 -3 -4 -4 -4 -5 -5 -5 -6 -7 -7 -6 -5 -6 -6 -7 -5 -5 -5 -6 -5 -6 -7 -5 -1 -1 -4 -4 -3 -1 1 2 4 5
-1 -2 -2 -2 -2 -2 -2 -2 -3 -2 -3 -3 -3 -4 -5 -5 -5 -6 -6 -6 -7 -8 -8 -8 -7 -7 -7 -7 -6 -5 -5 -4 -5 -5 -3 -1 -2 -4 -4 -3 -2 -1 -0 2 4
-2 -2 -2 -2 -2 -3 -3 -3 -2 -2 -2 -3 -3 -5 -5 -5 -5 -6 -7 -7 -8 -8 -8 -8 -7 -6 -7 -7 -6 -4 -5 -5 -5 -2 -3 -2 -3 -3 -4 -3 -1 -2 -0 1 2
-3 -2 -2 -3 -3 -3 -3 -3 -2 -2 -2 -3 -4 -5 -5 -5 -6 -6 -7 -7 -7 -8 -8 -8 -7 -6 -6 -6 -6 -6 -6 -5 -5 -10 -5 -4 -6 -7 -6 -5 -3 -2 -2 -1 -0
-4 -3 -3 -3 -3 -4 -4 -3 -3 -3 -3 -3 -4 -5 -5 -6 -6 -7 -7 -7 -7 -7 -8 -8 -8 -5 -5 -6 -7 -6 -7 -7 -6 -6 -5 -4 -7 -7 -6 -6 -5 -5 -5 -4 -2
-4 -4 -3 -3 -4 -3 -3 -3 -3 -3 -3 -4 -4 -5 -6 -6 -7 -7 -7 -7 -8 -8 -7 -8 -8 -8 -6 -6 -6 -6 -7 -7 -7 -7 -7 -7 -7 -6 -7 -6 -5 -5 -6 -4 -3
-5 -5 -4 -4 -4 -3 -3 -3 -4 -3 -4 -4 -5 -5 -5 -6 -6 -7 -7 -7 -8 -7 -8 -8 -8 -8 -6 -6 -6 -6 -6 -6 -7 -7 -7 -8 -7 -6 -7 -6 -6 -5 -4 -5 -5
-6 -7 -6 -5 -4 -3 -3 -4 -4 -4 -4 -5 -5 -5 -6 -6 -6 -7 -7 -7 -7 -7 -8 -8 -8 -9 -9 -8 -9 -7 -7 -6 -6 -6 -6 -7 -7 -6 -5 -6 -7 -7 -6 -5 -5
-6 -7 -6 -4 -3 -3 -3 -4 -4 -4 -4 -5 -5 -5 -6 -6 -6 -7 -7 -7 -7 -7 -8 -8 -8 -8 -8 -9 -8 -8 -6 -6 -5 -6 -6 -7 -7 -7 -6 -6 -7 -7 -7 -6 -5
-6 -7 -6 -5 -3 -5 -4 -3 -3 -4 -4 -4 -4 -5 -6 -6 -6 -7 -7 -7 -7 -7 -8 -8 -8 -8 -8 -8 -8 -8 -7 -7 -6 -7 -7 -8 -7 -7 -8 -8 -7 -7 -7 -7 -7
-6 -6 -6 -5 -4 -4 -3 -2 -3 -4 -5 -5 -6 -6 -6 -6 -7 -6 -7 -6 -7 -7 -7 -8 -8 -8 -7 -8 -7 -7 -8 -7 -7 -7 -7 -7 -7 -8 -8 -8 -7 -7 -7 -7 -6
Height
3091 3090 3090 3090 3090 3089 3090 3091 3090 3091 3092 3092 3094 3094 3094 3097 3098 3099 3100 3100 3100 3100 3102 3104 3104 3106 3108 3110 3111 3112 3112 3103 3107 3112 3117 3120 3123 3125 3129 3130 3132 3135 3137 3140 3142
3091 3090 3089 3089 3089 3089 3089 3090 3091 3091 3091 3091 3092 3093 3093 3095 3095 3096 3096 3096 3096 3097 3098 3099 3101 3101 3103 3105 3106 3107 3104 3099 3105 3111 3112 3116 3117 3120 3123 3125 3127 3130 3133 3135 3137
3091 3090 3090 3089 3088 3089 3090 3089 3091 3091 3089 3090 3090 3090 3092 3092 3093 3092 3092 3092 3092 3092 3093 3093 3095 3096 3097 3099 3101 3100 3094 3101 3101 3105 3106 3109 3111 3113 3116 3119 3123 3126 3128 3130 3131
3090 3090 3090 3089 3088 3088 3089 3090 3089 3091 3091 3090 3089 3089 3089 3090 3093 3089 3090 3089 3088 3088 3088 3088 3089 3090 3091 3093 3094 3092 3093 3093 3094 3099 3102 3104 3105 3106 3108 3113 3119 3121 3123 3124 3126
3090 3090 3090 3089 3088 3088 3089 3090 3089 3089 3088 3088 3088 3088 3088 3089 3089 3087 3087 3086 3085 3084 3082 3082 3083 3083 3083 3084 3086 3086 3087 3086 3086 3088 3093 3097 3096 3100 3100 3107 3112 3116 3118 3120 3120
3089 3090 3089 3088 3087 3087 3087 3088 3088 3087 3087 3087 3087 3087 3087 3089 3087 3085 3084 3082 3081 3080 3078 3076 3076 3076 3075 3075 3078 3079 3074 3074 3076 3078 3082 3085 3091 3094 3094 3101 3104 3107 3113 3116 3116
3088 3088 3088 3088 3087 3086 3086 3087 3087 3087 3087 3087 3087 3086 3086 3087 3085 3085 3084 3082 3080 3077 3076 3073 3070 3071 3070 3069 3069 3068 3063 3064 3067 3071 3074 3080 3080 3081 3087 3092 3095 3099 3103 3108 3113
3086 3086 3087 3087 3086 3086 3086 3086 3086 3086 3086 3086 3085 3085 3084 3084 3082 3081 3079 3077 3076 3072 3070 3070 3068 3068 3068 3065 3064 3063 3060 3055 3063 3067 3068 3075 3061 3071 3082 3083 3087 3091 3096 3100 3105
3085 3085 3085 3086 3085 3085 3085 3085 3086 3086 3085 3085 3085 3084 3084 3083 3081 3078 3075 3073 3071 3069 3067 3065 3064 3065 3064 3062 3058 3056 3052 3053 3054 3062 3065 3065 3050 3061 3071 3076 3079 3083 3088 3092 3097
3084 3084 3084 3085 3084 3084 3084 3084 3085 3085 3085 3085 3085 3086 3085 3082 3078 3076 3074 3071 3067 3064 3063 3061 3059 3059 3059 3059 3054 3054 3051 3050 3049 3054 3057 3055 3045 3054 3064 3068 3070 3075 3079 3084 3091
3082 3082 3082 3083 3083 3083 3083 3084 3087 3087 3085 3085 3085 3083 3082 3080 3077 3074 3070 3068 3066 3064 3059 3058 3058 3056 3055 3055 3053 3051 3048 3044 3044 3050 3053 3049 3044 3048 3054 3057 3061 3065 3072 3076 3081
3080 3080 3080 3081 3081 3082 3081 3082 3083 3086 3085 3083 3082 3082 3081 3079 3076 3073 3070 3068 3064 3060 3057 3057 3055 3055 3053 3051 3049 3046 3043 3039 3039 3043 3047 3045 3038 3043 3047 3050 3054 3057 3062 3067 3073
3078 3078 3079 3079 3079 3080 3080 3081 3082 3083 3084 3083 3082 3081 3080 3078 3074 3071 3069 3066 3061 3058 3056 3055 3056 3053 3050 3045 3044 3040 3037 3036 3036 3039 3039 3041 3032 3036 3043 3046 3049 3050 3053 3058 3062
3075 3076 3076 3077 3080 3078 3079 3080 3081 3082 3083 3084 3082 3080 3079 3077 3076 3071 3069 3067 3061 3058 3056 3055 3054 3051 3047 3043 3041 3031 3031 3034 3035 3037 3036 3038 3035 3031 3037 3040 3044 3043 3047 3051 3055
3072 3074 3075 3075 3076 3077 3079 3079 3080 3082 3085 3083 3081 3079 3076 3078 3077 3073 3068 3066 3062 3059 3059 3056 3050 3048 3045 3040 3036 3026 3028 3030 3033 3033 3033 3033 3039 3034 3032 3032 3033 3033 3036 3040 3045
3070 3071 3072 3073 3074 3076 3076 3078 3080 3083 3079 3078 3078 3076 3077 3076 3074 3072 3069 3067 3062 3059 3057 3054 3052 3048 3042 3033 3029 3026 3028 3029 3031 3032 3030 3029 3030 3033 3032 3030 3027 3028 3030 3035 3038
3068 3069 3070 3071 3072 3073 3075 3077 3080 3077 3077 3077 3076 3075 3074 3074 3073 3070 3067 3065 3062 3058 3054 3052 3050 3047 3042 3029 3027 3028 3027 3029 3031 3033 3030 3023 3028 3035 3031 3027 3027 3026 3027 3028 3032
3065 3066 3067 3068 3069 3071 3073 3076 3075 3071 3071 3072 3073 3073 3073 3073 3072 3071 3068 3067 3067 3064 3060 3056 3050 3047 3041 3036 3032 3030 3031 3029 3027 3027 3025 3023 3024 3031 3029 3027 3026 3025 3025 3023 3025
3061 3062 3063 3065 3067 3068 3072 3071 3069 3069 3070 3070 3071 3071 3072 3072 3072 3070 3069 3068 3067 3065 3065 3060 3054 3051 3045 3039 3035 3032 3031 3031 3028 3021 3021 3021 3024 3025 3027 3025 3022 3023 3024 3023 3022
3055 3058 3060 3061 3063 3065 3067 3067 3067 3067 3068 3068 3069 3070 3070 3070 3070 3068 3068 3068 3067 3066 3064 3063 3056 3051 3049 3045 3040 3035 3033 3029 3029 3033 3024 3022 3026 3026 3023 3023 3020 3021 3024 3025 3025
3050 3052 3055 3057 3060 3061 3062 3063 3064 3065 3066 3068 3067 3067 3068 3068 3068 3068 3068 3067 3065 3063 3062 3061 3059 3053 3050 3047 3043 3039 3033 3034 3032 3033 3030 3025 3038 3033 3030 3026 3025 3022 3023 3024 3025
3043 3047 3049 3052 3056 3055 3056 3059 3061 3062 3063 3064 3065 3065 3065 3066 3066 3066 3066 3066 3064 3062 3060 3059 3056 3052 3050 3050 3048 3045 3042 3040 3037 3037 3034 3035 3040 3035 3033 3030 3030 3029 3024 3020 3021
3037 3041 3042 3045 3046 3049 3053 3055 3057 3059 3060 3061 3062 3063 3063 3064 3065 3064 3064 3064 3063 3060 3058 3057 3056 3053 3050 3051 3049 3045 3044 3042 3040 3039 3037 3037 3040 3037 3036 3032 3030 3029 3027 3025 3022
3032 3034 3036 3037 3039 3044 3047 3050 3053 3054 3056 3058 3059 3060 3061 3061 3062 3062 3062 3062 3061 3059 3058 3057 3056 3056 3057 3055 3054 3049 3045 3042 3041 3041 3042 3042 3042 3037 3035 3034 3033 3032 3031 3027 3026
3022 3025 3029 3029 3033 3037 3042 3044 3047 3050 3052 3054 3055 3056 3058 3059 3059 3059 3059 3059 3059 3057 3057 3056 3055 3054 3054 3053 3052 3050 3047 3044 3042 3041 3042 3045 3041 3040 3038 3037 3036 3034 3032 3030 3029
3013 3020 3024 3026 3029 3033 3035 3037 3042 3045 3048 3050 3052 3053 3055 3056 3057 3057 3056 3056 3055 3055 3055 3055 3053 3052 3052 3052 3051 3050 3048 3046 3044 3044 3045 3045 3043 3042 3041 3041 3040 3037 3035 3033 3031
3006 3011 3018 3022 3025 3027 3029 3033 3037 3040 3044 3046 3049 3050 3051 3054 3053 3053 3053 3053 3053 3052 3052 3053 3052 3051 3051 3050 3050 3051 3049 3048 3047 3047 3047 3046 3045 3044 3042 3040 3039 3037 3035 3034 3033
Wind_Speed
10 10 9 9 8 8 8 8 7 7 7 7 6 7 10 9 10 11 11 13 14 16 15 17 20 19 21 26 27 29 33 43 43 39 34 31 24 22 20 23 23 19 16 22 25
9 8 6 5 4 4 3 4 6 5 4 3 4 6 8 8 10 12 13 15 17 18 19 18 20 20 23 25 29 32 40 46 42 37 33 35 31 27 24 23 25 20 16 24 26
6 4 3 3 3 3 3 3 4 4 2 3 4 6 7 8 11 10 11 12 15 17 19 19 20 22 24 26 29 35 46 45 32 20 29 39 39 34 28 26 27 20 19 27 34
5 5 5 4 4 4 3 4 3 3 4 2 3 5 6 6 5 8 12 15 17 20 22 23 24 25 27 27 32 39 42 44 44 41 32 32 33 33 35 27 29 23 22 25 34
6 7 7 7 5 4 3 3 2 2 3 3 4 5 4 4 7 10 12 14 17 20 23 24 24 26 30 33 32 38 43 47 46 44 46 45 45 41 38 32 29 28 25 24 32
7 7 6 6 5 3 2 2 2 2 3 5 4 4 5 6 9 11 13 16 19 20 22 25 24 24 30 33 34 39 45 51 52 50 49 46 46 44 39 35 33 32 27 28 30
7 7 6 5 4 3 2 2 2 3 4 3 2 4 5 8 8 8 11 13 16 20 20 22 25 24 26 30 29 39 49 51 51 49 48 44 50 52 44 40 40 37 34 31 29
7 6 6 5 4 4 2 2 2 4 4 3 4 5 8 11 12 14 17 19 21 21 21 18 19 22 26 28 31 35 40 43 30 19 29 34 59 53 50 47 42 42 39 36 33
7 6 5 5 4 4 3 3 2 3 3 2 4 3 10 12 14 18 23 25 25 22 20 19 20 19 20 24 28 23 33 40 42 18 14 22 52 52 46 47 45 45 42 39 38
8 6 5 4 4 4 3 2 3 3 1 1 6 1 9 14 18 21 23 26 27 24 22 20 20 19 19 19 22 29 30 31 34 28 29 21 41 36 30 24 36 49 41 39 42
9 6 5 4 4 5 3 2 1 2 2 1 4 7 11 14 18 21 25 28 28 24 24 22 23 20 13 17 23 27 32 37 35 24 24 37 35 31 27 32 39 34 48 37 42
9 7 5 6 6 5 3 2 2 3 1 4 7 9 10 15 16 22 25 28 30 25 21 22 13 12 16 20 24 25 30 37 34 26 22 29 42 32 28 25 27 43 44 47 39
10 8 7 7 7 5 4 3 4 5 3 1 5 9 10 17 15 23 27 29 31 24 20 15 15 17 20 25 24 28 30 31 30 23 28 29 32 36 25 28 26 27 38 45 46
10 10 9 8 7 5 4 4 5 6 4 3 3 5 8 14 10 20 24 27 21 21 19 12 14 17 18 17 21 30 30 26 26 23 12 18 8 9 19 15 21 23 27 27 32
11 11 10 10 8 7 5 5 4 7 2 7 2 4 12 13 16 18 24 23 18 13 15 19 13 18 23 25 29 31 17 18 22 23 17 12 3 10 6 5 9 17 27 28 29
12 12 11 10 9 8 7 5 3 5 4 6 4 6 9 11 15 17 22 20 15 18 21 12 9 11 31 30 18 14 8 14 22 18 6 12 7 5 9 9 5 4 14 26 24
14 12 12 12 10 9 8 6 5 6 6 6 6 7 10 10 12 17 22 24 27 24 28 16 7 25 23 23 7 3 3 2 4 2 4 5 9 0 8 16 15 9 2 14 22
15 14 13 13 11 10 9 7 7 7 7 7 5 6 7 9 6 13 16 18 20 26 14 16 12 27 21 24 14 3 5 3 3 4 4 7 10 6 10 17 22 21 15 13 16
16 15 15 13 13 12 11 10 4 8 8 5 5 5 4 4 5 8 11 10 15 22 21 11 12 17 20 26 13 5 4 8 8 5 4 8 6 10 10 18 25 24 19 15 16
18 17 17 15 15 14 14 12 8 10 7 6 6 5 4 4 4 8 8 8 13 17 21 11 11 12 16 21 25 20 16 3 4 3 3 8 9 17 20 18 20 25 22 17 15
21 20 19 18 17 17 18 14 12 12 9 5 7 6 5 3 5 4 4 7 16 17 19 12 6 11 11 17 22 29 35 13 4 6 3 4 4 17 18 20 15 20 15 17 14
24 23 21 20 21 21 21 16 15 12 12 9 7 7 5 3 3 2 3 7 16 19 17 11 6 14 14 4 13 20 24 21 7 5 4 3 3 17 16 19 11 16 19 10 16
26 26 22 22 25 25 19 17 16 14 13 10 8 8 6 6 3 3 5 11 11 18 13 15 6 9 4 2 9 24 19 11 6 4 11 3 6 7 7 15 22 14 10 14 9
30 25 30 27 27 24 21 20 18 15 16 14 10 10 8 8 7 5 8 6 13 11 9 13 6 5 4 8 15 20 16 7 7 3 6 9 10 12 8 8 15 18 24 13 13
36 29 25 21 32 26 22 16 20 19 16 15 15 15 10 7 6 9 5 11 12 3 9 14 5 7 10 13 10 12 9 8 5 4 5 11 16 21 13 7 9 12 16 22 19
42 36 29 26 16 29 27 26 19 18 17 17 15 12 11 10 7 11 11 10 6 9 14 9 5 9 5 6 3 11 14 10 12 15 15 12 13 9 8 9 9 10 10 12 12
44 41 32 28 28 23 30 25 18 19 17 15 11 14 12 6 10 11 12 10 13 12 4 3 4 6 3 12 8 4 9 10 10 7 3 2 4 6 8 11 14 15 16 15 14
Wind_Direction
274 273 275 273 269 269 267 259 255 253 246 237 235 238 250 257 268 269 275 274 271 267 265 267 266 262 252 241 240 243 246 252 255 255 251 259 257 258 248 243 244 235 229 203 206
272 276 260 258 263 254 255 250 240 234 242 254 248 253 268 280 278 280 280 275 273 271 266 259 260 260 256 247 239 241 246 254 257 257 263 261 257 256 247 236 238 240 229 209 205
265 256 255 255 236 237 249 261 237 250 286 301 291 280 282 288 285 287 283 286 286 284 279 274 265 255 251 250 241 242 249 245 253 260 256 256 255 251 248 236 235 231 237 215 205
272 275 275 266 265 270 275 266 270 257 237 263 293 297 305 304 327 294 293 294 290 289 287 283 276 268 259 251 245 246 250 254 255 247 244 252 257 252 242 235 231 231 237 214 212
268 271 270 266 258 254 259 263 274 327 340 323 335 329 319 300 325 319 315 311 307 303 298 292 286 278 267 259 252 249 251 249 252 254 250 248 253 253 242 232 225 229 236 218 205
273 276 274 272 275 273 278 297 314 331 333 344 343 338 343 338 344 339 337 332 325 321 318 311 304 290 281 271 257 250 251 250 249 249 249 250 245 250 233 237 232 223 223 222 206
274 278 283 281 283 284 277 286 314 318 335 334 348 360 7 10 349 345 342 337 335 329 324 319 315 311 295 290 277 261 258 250 251 255 254 252 252 244 228 241 235 229 207 220 211
273 279 280 282 284 281 283 287 306 325 344 348 358 359 16 9 359 356 358 360 356 345 332 325 314 313 306 298 291 277 265 271 258 267 263 262 254 247 244 252 242 241 230 212 215
262 265 271 274 266 264 258 269 308 339 338 351 8 355 22 359 2 360 1 1 355 345 334 319 318 321 306 292 291 289 280 270 267 256 280 263 254 252 255 252 247 247 243 230 215
251 245 252 260 254 256 259 282 317 342 25 57 25 39 358 1 3 359 356 358 355 349 344 340 332 316 305 291 277 296 289 282 272 278 248 248 255 263 258 256 252 244 249 245 229
256 254 254 251 243 244 240 258 269 332 35 93 34 40 13 357 353 355 354 0 357 350 343 339 331 328 311 295 291 287 284 276 276 270 264 251 262 266 265 254 239 240 240 243 239
255 253 247 247 240 237 236 252 265 246 290 14 20 18 10 352 341 351 354 355 352 353 335 334 0 331 320 308 291 279 277 276 274 285 263 267 262 262 264 254 250 244 238 235 235
253 248 239 237 242 238 241 246 253 247 212 330 358 351 1 349 339 344 350 355 353 354 342 336 338 328 316 306 290 277 268 267 262 283 238 275 282 255 262 265 259 247 246 240 239
247 247 236 229 231 227 230 247 249 225 231 245 318 353 334 353 334 343 347 358 0 350 350 340 334 324 335 318 323 282 269 260 261 262 248 237 301 254 250 272 253 255 247 251 249
240 238 236 227 224 223 228 236 241 203 15 186 232 313 320 344 344 344 351 359 1 6 349 336 322 327 323 312 320 291 292 254 245 249 264 227 248 346 253 182 228 229 230 240 239
238 233 233 229 222 221 222 225 198 186 243 199 202 260 313 338 339 344 357 5 11 17 3 355 343 334 324 314 309 279 271 247 240 240 256 216 171 0 44 28 36 267 233 228 235
241 234 229 229 224 222 221 212 198 216 196 201 230 263 309 341 335 351 359 15 20 4 1 9 324 339 346 21 17 268 214 189 222 196 241 188 175 107 56 91 86 90 178 218 237
237 234 229 229 227 226 222 214 229 219 192 207 237 266 298 337 339 352 354 14 19 14 359 355 340 353 11 358 331 296 226 239 235 176 215 216 176 79 108 105 104 99 109 160 210
233 232 230 225 226 225 227 224 247 216 212 219 240 236 242 319 342 358 2 356 6 9 10 345 325 12 23 18 22 350 347 261 296 300 151 160 128 121 94 129 123 105 110 126 135
227 228 230 225 222 224 228 229 238 223 216 220 213 220 225 331 8 0 3 346 358 354 358 341 305 3 14 25 46 36 24 1 2 14 318 94 47 352 16 37 112 107 98 107 113
220 222 225 226 224 224 229 235 244 234 228 224 219 228 250 323 343 346 350 351 351 352 354 347 310 337 0 17 19 24 28 16 19 22 344 14 30 16 16 34 48 80 89 93 116
216 218 223 224 222 228 230 236 239 230 222 231 234 234 256 290 312 309 319 332 344 341 346 355 307 310 316 1 24 26 16 23 10 349 73 123 54 19 14 15 42 44 76 125 134
215 219 222 219 223 228 230 234 232 229 224 227 226 227 252 275 289 280 311 328 340 339 2 353 333 337 2 25 336 12 20 15 1 356 29 44 8 17 13 6 357 7 9 51 69
210 215 221 220 224 225 228 231 226 225 229 228 232 237 248 257 266 275 295 314 329 328 349 346 320 303 263 303 331 341 10 23 28 23 64 47 33 24 45 33 26 11 3 0 357
210 214 221 226 224 222 222 224 222 223 219 218 230 235 239 241 256 274 287 316 327 340 341 345 337 310 310 302 310 354 23 35 47 68 78 88 68 49 59 38 33 10 15 10 338
214 210 219 223 216 220 219 225 223 217 219 220 221 223 234 240 265 295 301 317 321 319 321 329 323 337 46 16 23 77 60 84 86 107 112 95 71 50 55 29 20 10 3 8 355
214 215 218 227 224 220 222 224 225 221 222 225 216 229 244 262 278 289 296 301 296 294 292 327 12 353 351 352 156 90 67 56 70 69 60 33 23 0 357 356 357 344 338 335 327